Regional Weather Roundup
Issued by NWS

Home | Current Version | Previous Version | Graphics & Text | Print | Product List | Glossary On
Versions: 1 2 3 4 5 6 7 8 9 10 11 12 13 14 15 16 17 18 19 20 21 22 23 24 25 26 27 28 29 30 31 32 33 34 35 36 37 38 39 40 41 42 43 44 45 46 47 48 49 50
000
ASUS45 KABQ 041401
RWRNM
NEW MEXICO REGIONAL WEATHER ROUNDUP
NATIONAL WEATHER SERVICE ALBUQUERQUE NM
800 AM MDT FRI SEP 04 2015

NOTE: "FAIR" MEANS FEW OR NO CLOUDS BELOW 12,000 FEET AGL WITH NO
       SIGNIFICANT WEATHER OR OBSTRUCTIONS TO VISION.

      THIS PRODUCT IS RELEASED AS TWO VERSIONS.  ONE VERSION NEAR
      THE TOP OF THE HOUR CONTAINING PRELIMINARY DATA FROM ALBUQUERQUE
      AND OTHER STATIONS.  A FINAL VERSION WITH ADDITIONAL DATA IS
      ISSUED ABOUT 10 MINUTES AFTER THE HOUR.

NMZ501-503-504-510>518-041500-
NORTHWEST PLATEAU/NORTHCENTRAL MOUNTAINS

CITY           SKY/WX    TMP DP  RH WIND       PRES   REMARKS
FARMINGTON     LGT RAIN  64  49  57 E7        30.10R
SANTA FE       PTSUNNY   65  44  46 N5        30.17R
TAOS           PTSUNNY   54  37  54 N5        30.24R

$$
NMZ402-403-502-505>509-041500-
WESTCENTRAL MOUNTAINS/SOUTHWEST MOUNTAINS

CITY           SKY/WX    TMP DP  RH WIND       PRES   REMARKS
GALLUP         CLOUDY    59  53  80 CALM      30.17R
SILVER CITY      N/A     64  57  77 NW5       30.15R

$$
NMZ407-409-411-412-041500-
SOUTHERN DESERTS

CITY           SKY/WX    TMP DP  RH WIND       PRES   REMARKS
DEMING         CLOUDY    69  58  67 SW3       30.07R
HOLLOMAN AFB   PTSUNNY   72  54  52 SW3       30.02R
ALAMOGORDO     MOSUNNY   72  54  53 CALM      30.04R
T OR C         CLOUDY    67  57  70 SW3       30.09R

$$
NMZ519>523-041500-
CENTRAL VALLEYS/CENTRAL HIGHLANDS

CITY           SKY/WX    TMP DP  RH WIND       PRES   REMARKS
ALBUQUERQUE    CLOUDY    68  49  50 SE6       30.11R
DOUBLE EAGLE   CLOUDY    66  48  52 VRB7      30.13R
CLINES CORNERS CLOUDY    63  47  55 W6        30.20R
BELEN          FAIR      65  51  59 CALM      30.11R
SOCORRO        NOT AVBL

$$
NMZ524>526-539-540-041500-
SOUTHCENTRAL MOUNTAINS

CITY           SKY/WX    TMP DP  RH WIND       PRES   REMARKS
RUIDOSO        PTSUNNY   64  46  52 W5        30.23R

$$
NMZ527>531-041500-
NORTHEAST HIGHLANDS/NORTHEAST PLAINS

CITY           SKY/WX    TMP DP  RH WIND       PRES   REMARKS
LAS VEGAS      MOSUNNY   61  46  57 CALM      30.18R
RATON          MOSUNNY   57  48  72 NE5       30.13R
CLAYTON        SUNNY     68  52  56 W5        30.04R

$$
NMZ532>537-041500-
EASTCENTRAL PLAINS

CITY           SKY/WX    TMP DP  RH WIND       PRES   REMARKS
TUCUMCARI      MOSUNNY   74  50  42 SW6       29.99R
CANNON AFB     MOSUNNY   73  53  48 SW6       30.04R
CLOVIS AIRPORT SUNNY     73  52  46 S8        30.05R

$$
NMZ028-029-538-041500-
SOUTHEAST PLAINS

CITY           SKY/WX    TMP DP  RH WIND       PRES   REMARKS
ROSWELL        MOSUNNY   72  50  45 SE3       29.99R
ARTESIA        SUNNY     73  52  46 S7        30.00R
CARLSBAD       SUNNY     75  51  43 S5        29.97R
HOBBS          SUNNY     72  55  56 SE13      30.03R


$$


USA.gov is the U.S. government's official web portal to all federal, state and local government web resources and services.